User: anonymous   Login
Location: Zagreb
(45.8000°N, 16.0000°E)
Time: 00:27:49
(UTC+01:00)
Language:

Oscar 11 - Orbit

View from above orbital plane
View from above orbital plane
View from above satellite
View from above satellite

Ground track
Ground track

The orbit data is extracted from the following two-line orbital elements,

1 14781U 84021B   20304.75690842  .00000116  00000-0  20253-4 0  9990
2 14781  97.5905 310.0019 0009844 112.9389 247.2865 14.83204132972886
Epoch (UTC): 30 October 2020 18:09:56
Eccentricity: 0.0009844
inclination: 97.5905°
perigee height: 612 km
apogee height: 626 km
right ascension of ascending node: 310.0019°
argument of perigee: 112.9389°
revolutions per day: 14.83204132
mean anomaly at epoch: 247.2865°
orbit number at epoch: 97288

The dashed part of the orbit path shows where the satellite is in the earth's shadow,  

DLR